AFL1525 UUBC-ULLI

Flight info

Callsign AFL1525
Flight time N/A
Altitude 38000
Route BAMDO2M BAMDO T462 GODBI T561 ODATI T875 GENPA GENPA1W
Aircraft A320/M-SDE3FGHIRWY/LB1

Departure

Time 2026-05-07 12:31
Airport Grabtsevo Airport (UUBC)

Arrival

Time N/A
Airport Pulkovo Airport (ULLI)
Time Latitude Longitude Altitude Speed Heading
2026-05-07 11:51 54.54727 36.36812 624 ft 0 kts 204°
2026-05-07 11:52 54.54728 36.36812 624 ft 0 kts 204°
2026-05-07 11:54 54.54727 36.36812 615 ft 0 kts 204°
2026-05-07 11:59 54.54728 36.36812 615 ft 0 kts 204°
2026-05-07 12:21 54.54728 36.36813 615 ft 2 kts 204°
2026-05-07 12:22 54.54751 36.36829 625 ft 4 kts 199°
2026-05-07 12:22 54.54777 36.36841 617 ft 4 kts 184°
2026-05-07 12:22 54.54801 36.36835 632 ft 3 kts 142°
2026-05-07 12:22 54.54804 36.36831 620 ft 0 kts 139°
2026-05-07 12:26 54.54784 36.36858 624 ft 9 kts 143°
2026-05-07 12:26 54.54718 36.36944 622 ft 15 kts 143°
2026-05-07 12:26 54.54643 36.37040 615 ft 9 kts 127°
2026-05-07 12:26 54.54652 36.37101 622 ft 0 kts 55°
2026-05-07 12:27 54.54658 36.37114 619 ft 5 kts 55°
2026-05-07 12:27 54.54694 36.37205 623 ft 10 kts 55°
2026-05-07 12:27 54.54697 36.37307 616 ft 9 kts 121°
2026-05-07 12:28 54.54632 36.37395 615 ft 13 kts 144°
2026-05-07 12:28 54.54552 36.37495 617 ft 16 kts 143°
2026-05-07 12:28 54.54453 36.37619 625 ft 19 kts 144°
2026-05-07 12:28 54.54339 36.37760 614 ft 22 kts 144°
2026-05-07 12:29 54.54214 36.37918 624 ft 23 kts 144°
2026-05-07 12:29 54.54093 36.38042 624 ft 10 kts 175°
2026-05-07 12:29 54.54050 36.38078 621 ft 6 kts 97°
2026-05-07 12:29 54.54078 36.38098 618 ft 4 kts 330°
2026-05-07 12:30 54.54101 36.38062 624 ft 0 kts 324°
2026-05-07 12:30 54.54106 36.38056 629 ft 6 kts 324°
2026-05-07 12:30 54.54274 36.37847 622 ft 66 kts 323°
2026-05-07 12:31 54.54837 36.37138 625 ft 131 kts 324°
2026-05-07 12:31 54.55705 36.36083 882 ft 159 kts 321°
2026-05-07 12:31 54.56620 36.34965 1595 ft 163 kts 315°
2026-05-07 12:31 54.57534 36.33824 2327 ft 165 kts 315°
2026-05-07 12:32 54.58497 36.32585 2640 ft 185 kts 316°
2026-05-07 12:32 54.59605 36.31150 2947 ft 211 kts 317°
2026-05-07 12:32 54.60854 36.29547 3334 ft 235 kts 317°
2026-05-07 12:32 54.62221 36.27801 3750 ft 257 kts 317°
2026-05-07 12:33 54.63720 36.22483 5387 ft 255 kts 269°
2026-05-07 12:33 54.63805 36.19413 6322 ft 257 kts 272°
2026-05-07 12:33 54.63968 36.16322 7200 ft 259 kts 273°
2026-05-07 12:34 54.64158 36.13203 8106 ft 262 kts 273°
2026-05-07 12:34 54.64352 36.10053 8975 ft 265 kts 273°
2026-05-07 12:34 54.64543 36.06863 9794 ft 269 kts 272°
2026-05-07 12:34 54.64729 36.03576 10328 ft 284 kts 272°
2026-05-07 12:35 54.64913 36.00087 10577 ft 307 kts 272°
2026-05-07 12:35 54.65107 35.96298 11066 ft 320 kts 272°
2026-05-07 12:35 54.65304 35.92443 11789 ft 325 kts 272°
2026-05-07 12:35 54.65504 35.88526 12536 ft 328 kts 273°
2026-05-07 12:36 54.65705 35.84571 13283 ft 332 kts 273°
2026-05-07 12:36 54.65907 35.80580 13968 ft 335 kts 273°
2026-05-07 12:36 54.66110 35.76552 14623 ft 338 kts 273°
2026-05-07 12:36 54.66311 35.72525 15269 ft 341 kts 273°
2026-05-07 12:37 54.66513 35.68417 15934 ft 344 kts 273°
2026-05-07 12:37 54.66714 35.64274 16586 ft 347 kts 272°
2026-05-07 12:37 54.66959 35.60093 17200 ft 352 kts 277°
2026-05-07 12:37 54.67584 35.55960 17827 ft 357 kts 285°
2026-05-07 12:38 54.68347 35.51849 18421 ft 360 kts 285°
2026-05-07 12:38 54.69101 35.47752 18948 ft 363 kts 285°
2026-05-07 12:38 54.69867 35.43571 19490 ft 366 kts 285°
2026-05-07 12:38 54.70636 35.39348 20015 ft 368 kts 285°
2026-05-07 12:39 54.71408 35.35096 20534 ft 371 kts 285°
2026-05-07 12:39 54.72300 35.30888 21033 ft 376 kts 294°
2026-05-07 12:39 54.73752 35.27069 21539 ft 384 kts 308°
2026-05-07 12:39 54.75729 35.23969 22010 ft 393 kts 322°
2026-05-07 12:40 54.78180 35.21763 22481 ft 403 kts 337°
2026-05-07 12:40 54.80945 35.20687 22963 ft 412 kts 349°
2026-05-07 12:40 54.83807 35.20133 23395 ft 416 kts 349°
2026-05-07 12:40 54.86702 35.19580 23790 ft 419 kts 349°
2026-05-07 12:41 54.89612 35.19024 24214 ft 420 kts 349°
2026-05-07 12:41 54.92496 35.18469 24624 ft 422 kts 349°
2026-05-07 12:41 54.95422 35.17906 25048 ft 423 kts 349°
2026-05-07 12:41 54.98366 35.17339 25442 ft 425 kts 349°
2026-05-07 12:42 55.01317 35.16772 25830 ft 427 kts 349°
2026-05-07 12:42 55.04286 35.16202 26224 ft 428 kts 349°
2026-05-07 12:42 55.07224 35.15632 26608 ft 430 kts 349°
2026-05-07 12:42 55.10206 35.15053 27001 ft 431 kts 349°
2026-05-07 12:43 55.13208 35.14467 27386 ft 433 kts 349°
2026-05-07 12:43 55.16215 35.13883 27764 ft 435 kts 349°
2026-05-07 12:43 55.19236 35.13389 28147 ft 437 kts 351°
2026-05-07 12:43 55.22245 35.12985 28510 ft 440 kts 351°
2026-05-07 12:44 55.25314 35.12616 28824 ft 442 kts 352°
2026-05-07 12:44 55.28395 35.12260 29165 ft 444 kts 352°
2026-05-07 12:44 55.31492 35.11896 29423 ft 448 kts 351°
2026-05-07 12:44 55.34594 35.11514 29566 ft 453 kts 351°
2026-05-07 12:45 55.37770 35.11099 29710 ft 458 kts 351°
2026-05-07 12:45 55.40932 35.10667 29855 ft 463 kts 351°
2026-05-07 12:45 55.44161 35.10221 29997 ft 467 kts 351°
2026-05-07 12:45 55.47423 35.09775 30112 ft 471 kts 351°
2026-05-07 12:46 55.50708 35.09334 30309 ft 473 kts 351°
2026-05-07 12:46 55.54000 35.08906 30609 ft 473 kts 351°
2026-05-07 12:46 55.57293 35.08506 30939 ft 472 kts 352°
2026-05-07 12:46 55.60533 35.08130 31289 ft 470 kts 352°
2026-05-07 12:47 55.63799 35.07750 31625 ft 469 kts 351°
2026-05-07 12:47 55.67051 35.07354 31961 ft 468 kts 351°
2026-05-07 12:47 55.70298 35.06944 32305 ft 466 kts 351°
2026-05-07 12:47 55.73535 35.06526 32638 ft 465 kts 351°
2026-05-07 12:48 55.76765 35.06100 32973 ft 463 kts 351°
2026-05-07 12:48 55.79978 35.05659 33307 ft 462 kts 351°
2026-05-07 12:48 55.83144 35.05215 33647 ft 460 kts 351°
2026-05-07 12:48 55.86348 35.04777 33968 ft 459 kts 351°
2026-05-07 12:49 55.89541 35.04356 34227 ft 459 kts 351°
2026-05-07 12:49 55.92694 35.03945 34466 ft 459 kts 351°
2026-05-07 12:49 55.95888 35.03521 34721 ft 459 kts 351°
2026-05-07 12:49 55.99076 35.03087 34939 ft 460 kts 351°
2026-05-07 12:50 56.02276 35.02642 35158 ft 460 kts 351°
2026-05-07 12:50 56.05473 35.02191 35384 ft 460 kts 350°
2026-05-07 12:50 56.08670 35.01739 35582 ft 461 kts 350°
2026-05-07 12:50 56.11838 35.01294 35787 ft 461 kts 350°
2026-05-07 12:51 56.15037 35.00853 35994 ft 462 kts 351°
2026-05-07 12:51 56.18252 35.00414 36199 ft 462 kts 351°
2026-05-07 12:51 56.21468 34.99968 36389 ft 462 kts 351°
2026-05-07 12:51 56.24675 34.99524 36587 ft 462 kts 351°
2026-05-07 12:52 56.27850 34.99094 36786 ft 462 kts 351°
2026-05-07 12:52 56.31067 34.98677 36984 ft 462 kts 351°
2026-05-07 12:52 56.34283 34.98269 37167 ft 462 kts 351°
2026-05-07 12:52 56.37502 34.97860 37362 ft 462 kts 351°
2026-05-07 12:53 56.40680 34.97452 37536 ft 462 kts 351°
2026-05-07 12:53 56.43892 34.97039 37715 ft 462 kts 351°
2026-05-07 12:53 56.47106 34.96656 37876 ft 464 kts 352°
2026-05-07 12:53 56.50353 34.96399 37876 ft 466 kts 353°
2026-05-07 12:54 56.56894 34.96143 37882 ft 472 kts 354°
2026-05-07 12:54 56.63322 34.95977 37884 ft 461 kts 354°
2026-05-07 12:55 56.69803 34.95681 37889 ft 469 kts 353°
2026-05-07 12:55 56.76332 34.95315 37890 ft 472 kts 353°
2026-05-07 12:56 56.82914 34.94972 37889 ft 472 kts 353°
2026-05-07 12:56 56.89382 34.93964 37890 ft 464 kts 341°
2026-05-07 12:57 56.95279 34.89615 37892 ft 451 kts 323°
2026-05-07 12:57 57.00503 34.83362 37894 ft 450 kts 322°
2026-05-07 12:58 57.05764 34.77076 37901 ft 450 kts 322°
2026-05-07 12:58 57.10987 34.70806 37900 ft 450 kts 321°
2026-05-07 12:59 57.15361 34.65522 37903 ft 450 kts 321°
2026-05-07 12:59 57.21457 34.58124 37922 ft 451 kts 321°
2026-05-07 13:00 57.25832 34.52800 37919 ft 451 kts 321°
2026-05-07 13:00 57.31081 34.46409 37915 ft 452 kts 321°
2026-05-07 13:01 57.36337 34.39984 37925 ft 452 kts 321°
2026-05-07 13:01 57.41556 34.33569 37939 ft 452 kts 321°
2026-05-07 13:02 57.46829 34.27091 37949 ft 453 kts 321°
2026-05-07 13:02 57.52053 34.20639 37963 ft 453 kts 320°
2026-05-07 13:03 57.57306 34.14102 37959 ft 454 kts 320°
2026-05-07 13:03 57.62539 34.07580 37965 ft 454 kts 320°
2026-05-07 13:04 57.67798 34.01012 37963 ft 453 kts 320°
2026-05-07 13:04 57.73017 33.94472 37965 ft 453 kts 320°
2026-05-07 13:05 57.78260 33.87890 37968 ft 452 kts 320°
2026-05-07 13:05 57.83465 33.81311 37966 ft 452 kts 320°
2026-05-07 13:06 57.88652 33.74592 37974 ft 451 kts 317°
2026-05-07 13:06 57.93564 33.67301 37964 ft 448 kts 314°
2026-05-07 13:07 57.98292 33.59824 37968 ft 442 kts 314°
2026-05-07 13:07 58.03035 33.52411 37970 ft 441 kts 315°
2026-05-07 13:08 58.07786 33.45148 37976 ft 441 kts 315°
2026-05-07 13:08 58.12536 33.37888 37976 ft 441 kts 315°
2026-05-07 13:09 58.17298 33.30550 37981 ft 441 kts 315°
2026-05-07 13:09 58.18909 33.28059 37979 ft 441 kts 315°